Location: Newark
(9.4667°S, 159.8167°E)
Time: 19:42:56
(UTC+00:00)

Courier 1B Rocket - Pass Details

Date: 25 November 2019
Orbit: 920 x 1202 km, 28.2° (Epoch: 12 December)

Event Time Altitude Azimuth Distance (km) Brightness Sun altitude
Rises 18:40:26 0° 231° (SW) 3,795 7.8 -2.9°
Reaches altitude 10° 18:43:29 10° 222° (SW) 2,794 7.2 -2.2°
Maximum altitude 18:49:31 34° 159° (SSE) 1,539 6.6 -0.8°
Drops below altitude 10° 18:55:14 10° 95° (E) 2,645 9.0 0.5°
Sets 18:58:02 0° 86° (E) 3,566 9.3 1.1°
